Location: Newark
(52.8300°N, 8.0000°E)
Time: 16:55:23
(UTC+00:00)

STARLINK-1075 - Pass Details

Date: 31 January 2020
Orbit: 349 x 351 km, 53.0° (Epoch: 21 February)

Event Time Altitude Azimuth Distance (km) Brightness Sun altitude
Rises 16:52:56 0° 283° (WNW) 2,176 7.7 -6.7°
Reaches altitude 10° 16:55:00 10° 277° (W) 1,329 6.8 -7.0°
Maximum altitude 16:57:51 44° 203° (SSW) 500 3.8 -7.4°
Drops below altitude 10° 17:00:41 10° 129° (SE) 1,324 5.3 -7.8°
Enters shadow 17:02:26 - 124° (SE) 2,039 6.2 -8.1°
